Wind_Speed
17 16 16 15 15 15 14 15 16 15 15 15 15 15 14 13 13 14 14 14 16 17 17 18 19 21 22 24 26 27 28 27 26 22 20 19 16 17 16 12 13 14 14 13 12 12 12 13 14 16 14 11 9 8 11 12 9 7 7 9 10 10 11 11 13 12 10 10 7 8 7 9 9 7 7 6 10 10 10 10 3 13 9 14 26 35 36 34
19 17 17 16 16 16 15 15 16 16 16 16 17 17 16 16 14 13 14 14 15 16 16 17 19 21 22 25 27 27 27 26 25 25 26 24 20 21 21 19 17 16 13 11 13 14 12 12 13 14 12 9 9 10 11 10 10 9 8 9 10 11 12 13 15 15 14 12 6 8 2 3 4 2 5 6 9 11 10 12 7 17 18 22 28 32 33 33
20 18 17 17 17 16 16 16 16 16 16 17 17 18 18 17 16 14 14 14 15 16 15 16 19 21 22 25 27 26 25 24 22 18 18 18 19 21 21 21 19 19 16 14 14 15 14 14 15 14 11 10 9 11 12 10 10 10 9 9 11 12 14 15 16 18 16 11 4 5 4 2 5 3 4 5 7 11 11 12 10 17 20 21 23 25 29 29
21 19 18 17 17 17 17 17 16 16 17 17 17 18 18 17 17 16 16 15 14 15 15 16 18 20 21 24 26 25 22 19 12 2 5 8 12 16 17 18 18 17 16 16 16 16 16 17 16 14 12 11 10 12 13 11 10 9 11 11 11 13 15 16 19 20 13 6 7 3 2 6 6 5 7 9 9 11 10 12 12 18 22 22 22 21 23 22
20 20 19 19 18 18 17 17 17 17 17 17 17 17 17 17 17 17 17 16 15 14 15 16 17 19 21 24 26 23 17 9 1 8 7 3 5 9 10 12 13 12 12 15 16 17 17 16 15 14 11 11 11 12 13 15 12 9 13 15 15 15 13 16 19 17 10 5 9 10 7 4 4 8 10 10 10 10 7 10 13 22 24 23 23 20 20 19
20 20 20 20 19 19 18 18 18 18 17 17 17 17 17 17 17 17 17 18 16 15 14 14 16 18 21 24 26 20 12 3 3 5 2 2 2 4 5 7 8 8 11 14 16 16 16 14 13 12 11 11 14 14 13 16 15 11 12 15 17 18 16 17 14 8 6 9 12 10 9 6 7 11 8 8 12 12 11 11 10 23 25 23 24 19 20 20
21 21 21 20 20 20 19 19 19 19 18 17 17 17 18 17 17 17 17 18 17 16 14 14 15 17 19 24 22 16 11 10 13 10 7 4 3 3 3 7 7 9 13 15 16 15 14 15 14 12 11 12 14 16 15 16 17 14 12 14 16 17 19 20 15 8 5 9 11 9 10 10 13 13 7 10 13 13 16 12 2 18 25 23 23 20 20 20
22 22 21 21 21 20 20 20 19 19 19 18 18 18 18 18 17 17 17 17 17 17 15 14 15 16 18 19 16 10 10 16 17 10 6 4 4 4 4 8 10 12 15 17 18 16 15 16 16 12 11 12 12 14 16 15 16 17 15 14 14 15 18 18 17 12 6 7 9 10 13 13 14 11 8 13 12 13 16 5 15 12 20 21 21 21 19 18
22 22 22 22 22 22 21 21 20 19 19 19 19 18 18 18 18 18 17 17 17 16 16 15 15 14 16 16 12 10 11 17 13 5 3 3 5 7 6 10 11 11 14 17 20 19 15 14 16 15 13 13 13 14 16 14 12 14 16 15 15 16 16 16 16 16 11 8 9 12 15 14 12 10 10 15 13 12 12 11 22 13 12 14 17 18 18 18
22 22 23 23 23 22 22 21 20 20 19 19 19 19 19 18 18 18 17 17 16 16 16 16 15 14 16 15 13 11 11 13 10 6 5 3 5 7 8 11 11 10 12 14 18 21 17 14 15 14 13 13 13 14 16 15 12 13 16 17 19 18 16 15 14 16 14 11 13 13 13 14 13 12 11 14 15 14 10 14 22 14 8 10 13 13 14 16
23 22 23 23 23 23 22 21 20 20 19 20 19 19 20 19 18 18 17 17 17 17 16 15 15 14 16 14 12 11 9 11 11 9 9 6 7 9 9 11 12 12 12 12 15 21 21 19 16 11 10 11 13 16 16 16 15 15 16 15 17 18 18 17 15 15 12 11 15 14 14 15 14 14 13 14 15 15 13 12 22 18 13 13 13 13 11 12
23 23 23 23 22 23 23 22 20 20 20 20 20 20 21 20 19 18 17 17 17 17 15 15 14 15 18 14 14 19 19 23 27 25 19 12 12 12 12 13 13 13 13 12 13 18 21 22 19 14 11 10 12 13 12 16 16 16 17 13 13 15 17 20 18 15 12 11 13 13 13 15 15 17 16 16 16 17 19 15 20 19 15 15 14 13 11 12
23 23 23 23 22 22 22 22 21 20 20 21 21 21 22 21 20 19 18 18 17 17 16 15 14 16 17 11 16 27 27 28 32 32 28 21 18 18 17 16 15 15 16 15 14 14 18 20 21 18 14 12 12 10 9 12 14 15 16 12 11 12 14 18 18 17 16 12 13 12 10 12 15 18 18 16 18 19 19 18 18 18 15 14 14 13 12 12
23 23 23 23 23 22 22 21 21 21 20 21 21 21 23 22 22 21 20 19 18 18 16 15 16 17 15 13 21 31 31 30 30 31 30 25 22 20 19 19 18 18 18 18 17 15 14 18 20 16 14 14 12 12 12 10 9 12 13 11 10 10 11 15 18 19 18 13 14 14 9 10 13 18 20 16 18 17 14 16 16 17 15 14 14 13 13 13
23 23 24 23 23 22 22 21 21 21 21 21 21 22 24 24 24 23 21 21 19 18 17 16 17 15 12 14 22 26 27 30 32 34 32 25 22 20 19 18 18 19 18 18 17 15 14 15 16 12 12 15 14 13 12 10 8 9 11 11 11 10 10 14 17 20 19 14 15 15 9 10 13 16 19 18 20 17 14 16 14 15 15 13 14 13 12 13
23 23 24 23 23 22 21 21 21 21 21 21 22 23 25 27 27 25 22 21 20 18 16 15 17 15 10 12 18 19 18 23 28 31 30 27 25 20 18 18 17 19 19 18 16 15 15 13 11 11 11 13 14 12 10 9 10 9 11 11 11 12 10 11 14 19 22 16 16 18 11 10 12 15 18 20 22 20 17 14 9 12 8 6 7 9 11 12
23 23 23 23 22 21 21 21 21 21 20 21 22 25 27 27 26 25 24 22 21 18 16 15 17 15 12 15 19 17 16 19 21 21 22 26 28 24 19 15 15 17 17 17 17 14 14 11 8 9 11 11 12 11 10 11 10 9 10 10 11 13 11 10 12 16 22 19 17 19 15 13 13 16 18 20 22 21 16 9 10 10 6 3 5 5 9 11
22 23 23 23 22 21 21 20 21 20 20 21 22 25 27 27 27 26 23 20 17 15 15 16 15 10 8 14 20 19 17 17 13 14 16 20 26 26 21 16 13 15 15 14 15 14 11 10 9 9 11 12 13 12 12 12 11 10 11 9 10 13 14 13 13 14 20 20 17 17 16 17 18 19 21 19 22 20 14 13 11 10 8 6 6 7 10 13
23 22 22 23 22 21 20 20 21 20 20 21 22 24 25 26 25 22 20 17 12 9 8 10 13 9 6 8 18 18 15 14 8 9 12 16 21 23 22 18 15 15 14 11 13 15 11 8 10 12 12 14 15 15 15 14 13 14 14 11 11 12 14 14 15 14 18 18 17 16 15 16 19 23 23 17 19 17 12 14 11 11 9 4 4 8 12 14
22 23 23 22 22 21 21 20 20 20 19 19 20 19 16 14 11 8 10 12 11 12 12 10 15 17 14 13 11 9 9 12 11 10 12 13 16 19 18 16 14 13 14 12 13 14 11 10 13 15 15 17 19 19 19 18 16 16 15 13 14 13 13 15 16 14 17 14 15 17 17 16 19 23 22 12 16 15 13 16 13 12 12 11 11 14 12 11
22 23 23 23 23 21 21 20 19 19 18 18 17 13 8 8 7 6 6 8 13 17 20 20 17 19 20 19 16 10 6 9 12 12 14 14 15 16 14 14 14 12 14 16 13 12 13 13 16 18 18 19 20 21 20 19 19 18 14 12 13 13 12 15 18 16 18 13 12 17 18 17 19 21 20 13 16 14 14 17 15 15 14 13 15 15 11 9
22 23 23 24 24 22 22 21 19 19 18 16 14 11 9 11 14 15 14 10 13 17 20 22 23 21 22 25 25 19 13 9 11 12 15 17 15 14 13 15 15 12 15 17 12 12 14 15 17 19 19 18 19 21 21 19 19 18 13 11 12 10 11 15 18 19 15 11 9 15 16 16 18 19 19 16 14 12 14 16 14 15 13 11 12 12 11 9
22 22 23 23 23 24 24 23 22 21 17 13 13 13 12 15 17 18 14 9 13 16 17 18 21 22 22 24 26 22 17 13 12 11 15 18 15 14 14 16 16 14 16 18 15 13 12 14 17 19 18 20 20 20 21 17 14 15 13 11 11 10 11 11 12 15 11 9 9 13 13 12 15 16 17 16 13 13 16 17 14 14 12 11 10 6 3 3
23 22 22 22 23 24 25 28 25 19 13 13 15 13 11 14 14 14 9 6 11 14 17 20 19 19 22 22 22 21 16 14 14 13 15 17 14 14 14 15 17 15 16 21 22 17 13 13 17 20 20 22 21 19 20 15 11 15 16 14 12 12 15 12 11 13 11 10 10 12 10 9 12 15 14 15 14 13 17 17 13 11 10 9 8 8 13 11
25 24 22 22 22 23 26 26 19 13 12 13 12 9 9 9 10 11 7 5 9 11 17 20 16 18 25 25 22 19 15 15 16 14 15 17 15 13 12 12 13 15 19 23 22 17 15 15 18 22 22 22 22 18 20 16 10 13 17 19 17 15 16 15 15 15 10 7 9 10 9 7 11 16 15 13 13 13 17 18 14 12 9 7 8 12 16 14
26 25 24 23 21 24 24 16 12 15 16 12 10 11 10 9 10 10 6 5 8 9 14 15 11 14 22 21 18 16 15 15 16 17 17 17 17 13 10 9 9 14 18 18 15 10 12 17 19 21 22 23 22 17 19 19 11 10 15 19 20 18 16 16 17 14 9 7 9 12 10 7 9 15 16 15 15 16 16 17 14 12 10 7 8 13 14 13
27 26 25 24 22 22 17 12 17 19 13 9 12 12 10 10 10 7 3 6 7 7 11 12 9 11 18 18 17 16 12 9 13 20 20 18 17 14 12 12 9 12 14 11 10 9 14 20 19 21 22 20 18 15 17 19 13 9 13 17 20 21 19 17 17 13 8 8 9 14 14 9 7 11 15 16 17 18 16 16 12 9 9 9 12 15 12 10
27 26 25 24 23 22 19 19 20 16 11 12 13 10 9 9 8 3 2 5 4 4 4 7 5 6 11 16 20 18 11 7 11 18 21 20 18 13 13 15 13 14 15 12 10 11 16 20 20 21 20 15 15 15 18 20 14 10 13 16 18 20 17 14 12 11 10 8 8 13 15 10 8 8 12 16 18 18 16 17 15 11 10 9 13 13 11 10
28 27 25 25 26 25 22 20 18 16 15 12 7 8 8 6 5 1 3 5 2 4 4 2 1 4 9 13 20 20 14 9 8 14 20 20 19 15 11 14 15 15 18 17 13 11 14 18 19 19 16 14 16 17 20 20 14 12 15 14 14 16 15 12 10 9 10 8 8 12 14 10 9 9 10 13 15 15 13 15 18 16 13 12 12 11 9 9
28 28 26 27 27 23 19 17 16 14 14 9 5 6 6 4 4 2 6 5 1 5 6 3 4 5 10 14 14 18 17 14 7 15 18 17 19 17 11 12 14 12 15 17 15 13 14 16 17 16 14 14 16 17 20 20 15 14 15 13 13 14 13 11 9 8 7 7 11 17 16 13 9 9 10 10 11 13 11 10 16 19 19 18 15 13 11 11
29 30 30 28 24 21 18 14 9 7 9 7 5 6 5 3 2 3 5 1 2 5 5 4 9 9 8 15 12 14 18 16 8 18 15 13 17 16 11 10 11 9 11 13 14 16 16 16 14 13 15 16 17 17 18 19 17 14 13 11 11 10 9 9 8 8 7 8 13 18 20 16 11 8 9 11 14 15 13 9 14 21 23 22 19 16 14 13
31 32 33 29 24 21 17 14 10 7 7 5 4 5 4 2 3 5 5 3 3 3 5 6 10 14 8 10 12 14 16 14 10 17 15 12 13 13 13 11 9 9 11 11 12 14 15 14 13 14 17 19 18 16 15 16 16 14 11 10 10 9 7 8 8 8 9 9 11 16 19 15 9 9 12 14 15 14 14 12 17 21 20 20 19 17 15 13
34 36 35 29 22 19 18 16 13 8 5 3 2 2 3 3 2 4 5 4 3 1 3 6 10 14 12 9 11 15 14 13 13 15 15 15 12 13 15 15 14 11 9 10 12 11 11 13 17 18 17 18 17 14 12 12 13 14 12 11 10 9 8 9 9 8 9 10 11 14 15 11 9 10 13 14 14 11 11 15 18 21 20 20 19 17 14 13
38 36 31 24 19 17 16 14 9 5 3 2 2 2 3 5 4 5 5 3 3 3 3 7 11 14 11 9 10 13 13 12 15 15 13 14 11 12 14 17 19 14 7 10 10 10 11 10 15 18 12 13 16 13 12 13 13 13 12 11 9 9 8 8 8 8 8 8 10 13 11 9 9 5 8 12 14 13 8 13 15 19 23 20 18 17 15 14
37 29 22 18 16 15 12 8 6 5 4 3 3 3 5 5 4 6 5 2 4 5 7 10 10 11 8 8 11 14 13 10 14 14 12 13 11 11 13 14 19 16 9 9 7 10 13 11 14 16 13 15 18 15 15 15 13 11 12 11 10 10 9 6 6 7 6 5 7 9 7 6 6 5 6 9 12 14 9 11 11 18 24 20 18 17 15 13
31 21 16 16 14 10 6 4 4 6 5 3 4 4 5 5 4 6 3 1 4 5 9 11 5 5 6 5 9 14 14 10 13 12 10 13 12 13 14 12 16 18 12 9 6 8 11 10 14 16 15 18 20 18 18 15 10 9 11 12 10 12 10 5 6 7 5 5 5 7 8 7 6 7 11 11 12 14 6 8 11 20 23 19 16 15 15 13
24 18 14 14 11 4 3 3 4 7 4 3 5 5 5 5 3 5 4 2 3 4 6 8 4 4 5 3 6 13 15 11 13 11 9 12 12 14 16 13 16 20 17 11 7 8 9 8 14 19 18 18 19 19 21 17 12 9 10 12 11 11 11 7 6 6 6 7 6 8 12 10 7 6 11 14 13 13 9 17 18 20 20 17 15 14 15 14
22 17 13 9 6 2 2 2 3 4 4 4 7 9 7 7 7 6 4 3 3 4 5 5 3 3 5 6 3 11 14 11 11 11 9 10 10 14 17 14 17 21 21 16 9 8 10 6 12 18 18 17 17 17 17 16 16 12 10 12 11 10 10 8 6 6 8 7 5 9 13 11 9 7 8 11 9 9 12 21 20 19 17 15 15 15 16 14
17 11 6 2 3 2 1 2 4 3 3 5 7 7 4 7 10 6 3 5 4 4 5 3 1 3 6 8 6 5 9 10 12 10 9 8 8 15 17 13 15 21 22 18 10 6 8 6 7 15 19 17 14 12 11 12 15 15 13 12 10 8 9 9 6 5 7 7 6 9 11 8 8 9 8 11 10 9 9 18 18 19 17 15 14 14 14 12
11 6 2 2 3 4 1 3 2 3 5 6 7 7 5 8 9 3 1 4 4 3 3 4 4 5 7 10 8 8 9 9 12 10 9 10 9 14 18 14 14 19 21 19 13 7 8 6 4 11 17 15 10 11 12 13 13 14 13 12 11 8 8 9 8 7 8 7 6 7 7 6 6 8 9 11 14 10 7 11 12 17 18 15 15 14 12 10
8 5 2 1 2 4 1 2 2 4 5 6 7 8 8 8 8 5 2 1 2 2 2 5 8 7 7 10 7 6 8 7 12 10 7 10 9 8 14 15 14 17 17 16 13 7 6 5 3 8 13 12 11 13 16 17 16 13 10 10 12 11 10 9 9 9 9 7 7 6 6 6 4 4 8 10 13 13 12 10 9 14 19 18 16 15 14 12
6 4 4 5 4 2 2 3 3 4 5 6 6 8 11 10 7 6 4 2 3 3 3 5 7 8 8 8 7 7 8 6 12 10 5 11 11 7 14 19 18 18 14 10 12 9 4 3 5 7 10 11 14 17 18 18 17 14 12 12 13 12 11 9 8 9 9 8 7 7 7 5 1 2 4 6 7 10 11 11 11 12 17 20 18 16 16 14
5 6 7 8 5 3 3 3 4 4 5 7 8 9 10 10 7 6 6 6 6 4 3 5 7 8 8 7 7 8 8 6 10 10 7 10 10 9 15 20 19 19 14 9 11 9 3 3 7 8 8 11 14 16 16 18 16 14 14 13 12 13 12 10 7 6 6 7 7 6 6 3 3 5 4 3 6 7 5 2 9 10 13 18 20 18 16 16
7 6 4 4 3 4 3 4 4 5 5 7 9 8 6 7 7 7 8 8 7 5 5 6 7 7 7 8 10 9 8 6 5 7 8 9 9 11 16 18 17 16 13 9 8 7 3 5 9 8 9 10 11 12 14 16 14 11 12 13 15 16 16 12 9 5 4 8 10 8 4 2 2 4 1 7 13 14 14 10 3 9 15 17 17 16 15 16
6 4 1 1 2 4 3 4 5 6 8 9 11 10 7 5 6 7 9 10 8 7 7 7 8 9 9 10 11 10 8 6 4 4 6 9 9 10 16 18 15 15 14 10 9 8 5 7 9 8 9 10 11 11 11 12 12 10 13 17 18 19 18 14 8 5 5 8 12 9 2 3 3 3 2 7 14 14 11 11 10 11 15 15 14 13 14 14
5 4 4 3 2 2 4 5 5 5 7 9 8 8 8 7 6 6 7 8 7 7 8 8 9 10 10 10 9 9 8 7 7 7 6 10 7 8 15 17 16 18 15 8 9 9 5 7 10 11 10 10 10 11 12 12 12 12 16 20 19 18 17 12 7 7 7 6 9 8 3 5 4 2 4 7 12 12 9 9 9 7 9 12 12 12 13 13
3 3 5 5 3 3 4 3 3 3 6 6 5 6 8 9 8 5 3 4 5 7 7 8 9 8 8 8 7 8 8 7 9 6 5 9 7 9 16 17 17 16 9 5 9 8 4 7 11 13 12 12 13 13 16 17 16 16 17 18 19 19 16 10 6 9 8 6 8 8 6 8 5 4 4 7 13 12 9 7 5 4 1 6 9 10 11 13
3 2 2 3 3 4 6 6 7 9 10 7 3 4 8 10 9 6 3 4 6 5 4 5 7 8 10 9 7 7 8 6 6 4 5 8 8 9 13 14 15 12 6 6 11 8 4 6 11 12 12 11 14 14 16 17 16 16 15 16 18 19 16 13 10 11 10 7 7 6 7 8 6 6 6 10 14 12 10 9 7 3 3 3 8 9 9 11
4 3 3 3 4 7 9 11 12 13 12 7 3 3 6 9 9 7 4 4 5 4 4 5 7 7 9 10 8 7 6 6 5 3 5 7 9 10 9 11 15 14 10 10 9 6 5 6 9 12 11 10 11 13 14 16 16 16 18 18 18 17 16 16 14 13 13 11 8 6 5 6 6 5 8 12 13 12 11 10 10 10 9 9 10 10 9 11
3 3 3 5 6 8 9 9 10 10 7 4 2 3 5 8 9 9 7 5 5 4 4 7 9 10 10 11 10 9 8 8 8 6 5 4 7 11 9 8 12 15 12 10 8 6 6 4 6 9 8 9 8 5 7 11 13 16 18 18 16 14 15 17 15 12 12 11 10 10 8 2 2 3 9 11 10 11 11 11 11 10 11 12 12 12 12 12
8 7 7 6 7 7 7 7 8 8 5 2 3 5 7 8 10 12 9 6 6 6 5 7 10 9 9 11 10 10 11 11 11 11 9 6 2 7 9 8 10 14 13 9 7 7 5 3 5 7 6 8 7 4 5 6 6 10 15 16 16 15 13 13 13 11 12 10 9 10 9 3 5 5 8 8 9 11 11 12 11 9 10 12 13 13 12 10
13 10 7 6 6 7 7 7 8 6 5 5 7 10 10 10 11 10 7 4 5 7 7 8 10 8 8 9 9 8 9 11 12 10 9 10 9 4 9 12 12 13 12 9 6 6 6 4 5 6 6 7 7 3 4 3 5 7 9 11 15 16 14 12 12 13 12 8 6 7 6 7 9 7 8 9 9 11 10 9 9 9 10 11 12 13 11 8
Wind_Direction
347 343 341 339 336 335 327 318 311 303 296 292 291 289 286 291 300 307 311 315 321 322 322 326 327 325 322 320 319 318 319 314 307 298 277 263 262 257 252 244 235 241 250 250 253 258 252 243 231 223 225 223 223 231 231 231 227 218 223 234 239 235 237 239 246 254 261 258 203 162 179 204 213 180 165 205 225 233 249 244 100 60 70 108 121 131 140 146
342 342 342 341 338 336 333 329 324 318 311 304 299 295 290 287 289 297 302 307 314 318 320 324 324 323 322 320 320 322 321 309 297 287 273 265 259 254 256 257 248 241 244 244 240 238 234 232 224 217 222 224 217 219 223 223 221 222 224 228 235 237 239 240 247 255 259 261 206 149 165 232 222 202 195 206 214 216 229 231 151 91 91 106 120 133 141 147
341 341 339 338 338 337 334 332 328 324 320 315 310 304 301 295 289 289 293 299 305 312 317 321 322 320 322 320 320 325 319 304 292 280 264 253 243 242 247 249 247 240 237 238 238 237 239 240 230 217 217 227 221 215 217 216 217 220 227 233 233 236 246 249 248 249 253 273 312 90 100 222 241 265 251 246 248 233 219 218 174 120 117 122 129 136 142 150
342 341 337 334 333 333 332 332 329 326 322 319 316 312 308 303 295 291 290 291 296 305 311 317 319 318 320 319 320 324 315 297 291 278 176 205 222 228 232 237 240 236 232 239 247 249 252 255 248 230 219 227 225 221 218 213 216 213 223 236 240 237 241 248 251 254 259 292 315 325 173 205 229 252 250 249 257 251 224 217 194 141 134 136 137 142 146 152
337 337 336 334 330 328 327 327 327 326 322 319 318 315 312 307 300 296 292 288 289 296 303 309 313 317 319 317 321 321 308 294 52 103 125 189 222 222 225 229 228 226 227 233 242 248 252 257 255 241 227 227 223 225 222 216 218 218 224 231 244 248 243 242 245 254 259 247 256 266 261 228 223 235 237 243 249 257 235 223 195 149 142 144 142 146 150 156
332 332 332 332 330 328 325 324 324 322 321 320 317 314 311 308 303 299 295 291 288 287 294 302 308 316 316 315 317 307 284 278 60 93 154 299 309 231 207 203 205 211 225 231 233 235 239 242 245 240 229 228 224 226 225 217 219 226 229 228 237 246 254 256 256 265 263 248 247 253 266 267 260 246 232 239 248 259 257 253 197 149 145 144 142 150 156 162
328 327 325 326 327 326 325 324 322 319 318 318 316 314 311 309 305 300 296 293 289 285 286 294 304 310 313 317 313 287 251 261 288 281 258 277 313 282 205 200 210 217 219 223 226 225 227 229 231 232 229 229 227 230 231 223 221 227 233 232 234 237 248 260 269 272 238 246 258 265 269 252 251 253 237 241 244 255 262 290 351 146 145 139 143 152 160 166
325 324 321 320 320 321 321 321 321 319 316 314 313 313 311 310 307 302 298 294 290 286 283 284 295 304 310 316 310 284 248 256 272 259 245 275 246 247 242 228 233 232 222 218 223 222 222 225 226 227 230 231 228 229 233 231 225 226 233 237 239 238 240 249 257 258 226 228 251 257 263 251 250 257 250 247 241 244 250 353 44 119 138 134 146 153 159 168
325 323 320 318 317 316 315 315 317 318 318 314 311 311 309 308 307 305 300 295 291 285 283 280 285 296 302 302 292 281 263 260 266 230 235 283 216 221 245 245 242 239 231 222 221 222 221 222 223 226 232 237 236 233 232 233 229 222 229 237 242 245 245 243 243 245 233 220 232 235 247 248 248 255 250 249 243 241 230 94 72 91 123 136 151 157 162 166
326 325 323 320 317 313 310 310 311 313 316 315 312 308 304 306 306 305 302 296 292 285 282 280 281 288 292 291 277 269 266 264 261 229 237 241 220 235 246 251 251 249 246 232 222 220 222 223 222 228 238 243 243 241 234 232 237 229 227 232 237 241 246 248 241 239 234 225 232 235 243 242 236 237 237 240 240 244 229 115 104 115 137 159 159 159 165 167
327 327 325 322 318 315 311 307 307 307 310 311 312 308 301 303 304 303 302 296 292 286 281 277 278 281 280 280 270 258 261 274 286 296 288 261 242 246 250 257 253 251 252 248 232 219 221 228 228 228 233 239 245 247 242 239 245 244 239 236 236 238 240 244 242 237 237 233 234 237 247 245 233 231 229 232 231 230 229 150 132 145 161 172 167 162 167 172
329 327 325 322 319 318 313 308 305 302 303 305 308 307 303 301 300 300 300 296 292 286 279 275 273 274 273 270 254 252 265 282 292 298 293 274 262 261 264 265 256 254 252 254 247 225 220 227 232 234 229 231 239 245 246 242 244 245 246 246 242 244 240 239 240 233 229 234 232 229 242 243 233 232 227 229 232 226 222 185 147 156 167 169 169 167 171 178
329 327 325 324 321 319 315 311 306 302 301 301 301 303 302 300 296 294 295 293 290 283 277 273 269 268 268 264 257 260 268 275 279 283 280 272 269 268 263 258 253 251 250 253 257 241 228 226 231 238 241 239 235 243 252 244 244 242 240 242 237 241 240 232 234 233 227 227 225 221 234 237 229 232 228 222 232 234 220 193 160 157 168 170 167 169 175 179
329 329 327 324 322 319 316 313 309 304 300 298 298 299 298 298 295 290 290 288 285 282 276 268 267 267 261 262 270 268 265 263 264 266 266 264 261 261 255 249 247 243 242 248 252 256 249 236 234 237 242 245 245 251 252 245 247 243 236 237 233 235 239 229 222 224 226 222 216 222 237 240 229 224 223 221 231 233 211 202 188 168 174 173 165 170 177 180
330 330 328 325 322 319 316 314 311 306 301 298 296 295 294 295 295 290 284 281 281 279 275 268 260 259 265 270 272 273 264 253 251 250 250 251 251 251 247 239 238 236 234 238 243 251 255 246 237 233 233 239 246 250 245 238 235 233 229 228 226 230 241 235 219 213 220 219 210 218 235 242 243 229 212 212 228 223 203 217 202 166 174 172 165 172 176 180
331 330 329 327 323 319 316 315 312 308 303 299 296 294 292 292 293 290 282 276 276 273 268 264 252 245 260 271 266 272 266 244 241 244 240 238 239 239 239 236 232 228 227 229 233 236 241 243 236 232 232 228 232 237 238 235 222 220 225 225 223 224 235 240 229 213 211 214 209 214 233 238 242 244 219 205 219 218 206 214 167 135 151 165 177 175 176 184
332 332 330 329 326 322 318 316 314 311 306 301 297 293 291 293 290 287 283 273 269 267 255 249 253 251 258 269 268 265 256 242 237 237 231 225 228 231 234 235 227 219 217 219 223 226 226 230 229 226 227 224 221 219 226 228 216 214 219 226 230 229 232 232 237 220 202 206 214 211 226 241 239 247 236 209 209 213 198 171 120 109 107 145 226 197 184 194
333 331 330 330 328 324 320 316 313 311 307 301 296 294 295 296 288 281 277 265 254 255 251 247 251 261 260 246 245 246 251 253 232 219 222 213 214 220 223 227 222 208 206 212 214 216 215 214 219 218 216 218 218 211 217 220 212 212 212 217 229 234 238 227 234 226 194 196 217 215 217 234 244 248 248 223 204 204 177 142 133 127 127 162 217 204 196 203
333 331 331 330 328 325 320 316 313 311 309 305 302 304 302 292 281 268 257 247 233 227 235 228 210 223 288 248 229 235 250 258 245 220 220 205 200 208 213 222 223 203 199 205 201 204 205 203 212 218 213 210 213 213 216 219 216 215 214 217 218 229 239 231 236 221 184 189 213 222 220 223 236 246 253 233 193 189 157 139 142 135 138 153 226 219 206 204
333 331 330 329 328 327 321 316 313 310 310 308 308 309 303 291 279 254 239 237 235 237 248 239 203 214 263 288 269 247 223 224 232 230 221 205 190 195 203 212 218 206 200 201 194 195 200 206 210 213 212 207 210 216 218 221 226 225 220 221 218 224 236 230 237 219 181 189 210 220 227 220 228 246 253 224 178 182 155 142 147 153 163 165 190 215 208 203
334 330 330 328 327 326 322 319 313 310 310 305 302 299 301 310 309 317 306 263 245 243 251 255 240 228 242 264 276 274 254 223 218 217 215 207 188 188 195 200 207 204 200 201 196 193 202 216 215 211 212 210 209 215 219 219 227 237 234 231 224 221 234 227 232 224 187 187 214 216 227 225 224 244 253 219 184 185 156 146 152 163 177 175 185 204 203 201
333 330 330 327 325 324 321 318 313 311 308 298 288 275 278 294 299 316 318 289 263 250 246 249 251 249 244 252 261 264 277 267 235 221 205 199 195 191 187 192 205 201 192 199 198 194 206 220 216 209 211 214 213 212 218 218 222 238 242 244 240 216 228 234 230 228 194 174 219 217 220 229 224 237 252 233 195 170 149 152 151 155 172 176 180 193 204 210
330 329 329 327 326 323 318 316 313 308 298 282 275 269 282 298 306 324 326 293 277 263 250 242 241 247 245 247 252 252 257 255 245 231 202 197 199 199 194 193 203 202 190 197 202 197 207 217 212 209 209 211 217 212 212 219 218 233 237 239 249 220 219 233 222 226 204 168 220 228 217 226 227 229 245 242 208 169 159 162 152 159 168 160 166 161 142 140
328 326 325 325 324 323 320 316 311 301 284 272 274 275 298 317 324 338 338 282 272 261 248 241 234 238 238 238 241 242 245 242 239 232 209 201 198 200 206 199 200 206 199 198 205 209 211 208 203 209 209 206 214 211 206 215 215 225 233 234 243 234 227 224 204 215 212 184 211 238 233 219 227 228 231 237 219 184 170 161 140 151 158 132 135 86 67 76
327 324 322 322 321 322 321 314 305 306 304 292 294 310 326 333 342 345 336 279 274 261 241 235 230 235 232 230 232 231 235 233 230 231 218 206 199 198 207 205 203 208 205 200 205 217 216 204 197 205 209 204 209 211 204 209 214 221 229 232 238 243 238 228 214 210 203 194 205 226 245 224 218 227 227 227 222 197 170 155 135 138 153 142 129 96 82 86
325 323 322 320 319 321 322 313 310 321 315 301 320 339 336 339 347 345 332 274 274 263 230 213 209 218 215 217 218 215 230 235 222 222 223 212 206 209 209 201 207 211 207 201 204 220 218 207 198 201 207 204 207 213 205 203 212 220 219 224 234 245 241 225 222 220 199 198 209 210 236 246 215 222 224 221 225 212 172 147 140 144 163 167 122 102 97 98
322 320 320 319 317 319 318 307 313 316 304 308 338 342 340 348 349 351 332 269 269 261 220 190 168 177 190 200 196 195 220 222 202 212 217 210 206 217 221 203 200 213 209 201 205 211 212 210 201 199 205 204 206 211 204 202 210 220 211 211 226 241 244 227 222 231 211 197 219 216 220 243 235 217 214 216 227 221 186 149 138 153 178 158 113 113 124 126
319 318 318 318 315 310 300 294 299 298 294 321 339 338 344 348 334 329 262 263 281 307 232 168 132 153 184 189 183 195 221 189 176 197 201 203 204 211 223 215 205 207 209 209 210 199 204 212 202 196 204 206 206 206 204 207 210 219 213 203 217 238 252 248 234 240 229 205 227 223 209 227 248 222 207 211 222 227 200 162 148 166 180 146 112 124 149 152
320 319 317 317 315 308 297 283 273 277 296 316 321 324 339 331 311 321 254 264 287 348 348 66 79 205 190 179 181 200 221 215 181 174 184 198 207 211 224 225 216 207 211 219 219 200 199 213 208 197 202 209 205 202 207 211 207 215 221 204 207 228 244 251 251 255 240 216 235 230 204 207 239 231 215 211 215 224 210 168 156 165 161 133 119 134 153 152
320 317 317 318 313 307 302 282 265 274 289 292 288 310 321 284 259 220 239 253 16 358 342 328 305 251 193 177 184 198 213 233 194 155 177 192 199 212 223 228 230 216 212 220 226 219 200 205 216 207 199 208 207 203 209 210 199 207 224 213 200 213 229 238 251 265 250 217 231 237 218 204 224 232 219 221 219 208 206 185 162 154 145 140 145 153 162 159
319 317 318 317 305 299 301 288 278 290 279 275 296 304 286 247 229 236 240 244 13 347 344 323 331 323 221 184 182 192 209 235 187 150 177 188 184 204 211 213 229 220 208 214 220 225 209 194 211 215 199 204 209 204 205 203 197 203 218 219 202 197 216 229 231 241 247 227 218 231 234 219 211 225 223 237 236 203 191 191 155 141 140 148 155 159 165 166
319 319 317 312 298 286 278 270 280 296 285 295 328 306 272 225 198 232 257 328 327 332 2 339 335 336 297 213 193 189 206 229 188 159 176 186 180 195 204 200 201 200 202 202 202 218 219 195 196 215 207 205 208 201 197 195 196 202 207 213 210 193 197 216 213 211 232 239 220 223 236 231 216 222 225 238 245 213 186 174 151 143 143 147 154 156 160 168
321 321 315 307 294 276 262 267 281 282 275 296 315 284 264 261 241 250 281 329 329 287 348 330 318 318 309 265 211 188 201 214 185 169 177 187 187 190 204 209 202 204 202 195 193 201 216 196 193 212 209 201 207 199 189 191 193 197 201 207 212 200 191 203 208 209 222 234 234 230 234 240 238 219 211 226 251 240 187 166 158 154 149 148 154 156 157 165
322 320 314 305 288 270 263 267 270 256 236 231 248 245 257 266 277 312 324 338 326 292 303 330 319 305 294 267 230 190 196 202 176 172 180 187 193 187 201 211 207 212 204 192 194 189 203 199 190 203 196 186 209 209 191 194 196 196 204 213 215 208 199 200 205 210 218 222 231 236 233 231 233 214 196 214 245 258 193 159 159 148 145 150 152 154 157 162
324 319 315 308 283 263 260 258 239 223 213 210 255 256 261 267 277 309 320 312 314 325 323 317 302 288 278 249 234 206 203 197 169 176 188 188 195 189 194 206 204 209 205 192 191 187 204 205 184 186 176 177 207 223 210 203 198 194 205 214 214 211 203 194 214 226 232 230 223 230 240 237 237 266 256 224 236 250 215 173 165 137 138 147 147 152 158 158
323 316 317 313 287 247 233 252 205 190 198 241 270 260 266 276 284 302 306 263 297 324 330 319 302 296 291 221 215 213 215 202 172 180 194 191 200 196 193 200 202 208 210 194 178 187 205 197 178 183 186 188 200 217 219 212 194 185 206 212 207 216 216 194 212 232 246 246 222 215 229 235 231 247 248 231 227 233 198 116 124 130 135 143 143 151 157 156
320 312 310 308 298 250 212 249 189 183 202 243 261 265 280 279 247 269 291 292 282 304 326 327 353 2 323 258 205 202 209 204 180 184 193 193 201 196 192 199 202 210 217 209 189 196 206 183 172 185 199 199 199 212 225 223 203 187 204 206 194 210 228 221 205 208 223 237 231 216 221 223 216 224 224 214 219 218 150 99 108 133 142 143 143 151 154 155
311 306 300 291 286 274 257 241 164 176 220 235 255 264 277 287 265 253 287 308 291 308 325 334 4 8 329 315 258 197 203 197 180 188 192 193 198 190 190 198 201 209 219 219 208 201 213 194 165 181 198 199 196 212 227 217 205 208 208 197 191 202 218 225 216 200 206 220 229 223 223 222 213 218 209 192 218 232 153 122 124 139 144 142 143 149 147 144
303 303 299 234 211 264 289 173 152 163 225 236 256 264 275 292 276 240 245 297 300 310 324 347 333 307 306 306 311 267 235 197 178 195 196 190 191 185 191 197 194 204 217 219 206 184 213 224 163 180 198 195 188 206 217 196 198 218 217 195 195 211 216 219 218 209 210 211 215 222 226 223 208 219 209 177 205 238 154 133 139 144 146 149 147 147 144 138
306 308 303 157 218 265 143 141 169 195 229 247 258 275 302 299 289 264 215 310 324 312 317 328 299 294 297 293 307 309 272 208 184 202 197 184 181 180 190 195 188 198 213 219 211 182 200 226 175 181 194 190 187 203 203 189 194 212 210 192 195 213 219 219 213 208 217 215 207 215 229 228 200 215 227 193 195 209 156 145 155 148 148 153 150 149 146 144
317 315 312 137 259 270 178 166 223 219 239 259 263 279 290 279 280 292 266 260 292 240 248 294 290 282 287 293 307 311 285 224 193 206 191 177 186 184 187 189 185 192 206 219 219 199 190 203 174 177 185 183 193 204 201 200 202 204 203 195 199 210 214 213 209 208 217 215 207 213 228 232 196 193 235 219 197 189 175 174 171 153 153 153 152 154 150 152
311 307 308 315 306 266 208 230 248 241 250 265 267 272 276 273 277 301 305 263 265 269 252 270 280 277 279 286 289 295 295 241 199 202 183 174 188 194 185 187 185 187 196 214 212 198 178 176 166 174 186 187 192 199 205 208 201 198 210 207 199 207 216 215 204 206 218 213 208 220 223 230 27 46 270 253 199 180 179 190 193 169 154 151 152 155 154 158
318 311 306 308 294 209 209 262 272 263 257 265 271 267 274 294 306 306 304 291 285 299 291 275 274 272 279 282 282 301 313 266 207 191 178 175 186 197 189 187 184 180 189 213 203 181 136 156 172 176 190 197 194 193 206 217 210 199 209 215 211 208 212 224 223 210 224 222 212 225 222 207 22 7 338 28 79 81 64 220 209 173 140 141 148 150 152 159
317 304 297 318 288 209 228 285 304 303 296 298 301 298 300 312 312 304 304 307 313 320 299 281 276 271 283 293 290 301 313 290 232 192 174 166 186 200 185 182 184 180 189 207 184 157 148 175 175 178 182 187 191 189 198 215 220 212 205 214 229 220 203 215 240 222 214 228 223 226 217 166 35 356 354 88 74 58 41 26 53 128 124 132 142 146 149 154
319 300 278 307 230 218 252 290 309 314 320 325 321 321 325 309 310 323 317 310 311 306 290 285 293 292 289 291 292 293 292 277 256 239 187 166 183 194 177 177 185 184 196 207 169 152 189 184 170 185 187 182 192 193 190 202 211 212 202 204 224 231 212 204 220 215 206 226 232 234 200 114 58 18 178 120 84 71 61 47 50 93 119 128 138 146 147 151
327 332 346 339 240 237 272 282 297 306 317 327 323 320 330 326 321 324 305 296 291 286 284 282 291 294 282 281 292 297 287 248 241 261 214 177 171 173 173 181 191 185 188 197 166 157 190 192 188 202 197 188 201 196 183 192 206 207 201 201 214 232 229 210 194 208 208 213 241 243 174 141 135 127 174 135 102 93 83 57 44 68 114 126 134 144 148 153
330 336 346 341 315 308 309 296 309 301 295 310 317 314 321 321 321 319 287 280 286 289 287 272 268 272 277 291 304 305 297 257 239 251 201 168 152 162 171 179 193 186 161 160 179 175 186 199 206 218 212 195 199 197 183 188 206 208 201 205 210 216 227 229 209 210 204 198 235 233 163 136 141 171 173 117 106 106 100 89 66 25 58 119 125 139 148 151
353 332 335 335 300 310 325 316 311 305 292 284 279 295 302 304 311 317 287 271 280 278 271 269 262 254 269 294 308 303 307 291 249 224 181 171 159 161 168 176 186 177 144 178 189 176 185 205 208 224 231 208 194 197 188 185 201 210 209 218 216 207 216 232 227 216 213 215 230 217 165 155 173 199 173 122 116 121 124 128 130 155 219 149 124 138 151 154
341 316 326 334 301 293 298 295 296 302 301 291 263 264 290 298 305 312 300 288 292 269 234 262 285 284 287 301 304 294 300 297 269 228 203 194 168 154 166 185 180 166 170 190 181 167 200 213 207 213 228 227 211 207 195 184 191 202 210 221 216 202 209 226 229 224 223 227 232 229 205 190 196 184 136 118 123 130 130 136 150 168 174 151 138 149 161 167
340 317 322 316 301 290 285 289 295 299 304 308 293 287 297 300 309 317 306 280 288 289 240 248 281 299 302 303 298 278 262 263 270 279 278 225 169 160 177 196 172 161 178 187 165 173 199 204 211 213 216 222 230 242 215 196 197 202 208 216 217 210 213 218 223 230 230 226 229 237 236 224 34 97 118 122 132 137 141 151 160 171 164 150 154 165 171 176
330 310 310 307 303 303 300 303 305 301 310 336 315 315 316 311 318 323 311 275 263 268 261 274 295 304 298 297 293 269 255 259 266 275 293 302 238 173 181 194 172 166 182 184 165 180 199 222 216 209 219 214 206 250 256 234 246 235 216 211 213 220 224 214 210 223 232 223 218 235 233 169 74 86 124 140 145 144 155 161 161 175 170 156 162 170 174 178
335 320 320 311 295 301 310 311 312 313 328 340 326 322 321 318 322 324 314 282 255 253 267 294 305 307 303 298 283 251 250 264 268 275 294 303 297 232 187 185 171 173 184 177 172 187 192 237 231 191 209 213 183 204 264 259 282 264 228 215 215 217 223 221 209 210 224 225 213 235 227 140 127 138 144 150 155 156 165 165 160 173 171 158 160 166 168 162
Height
811 810 808 807 806 805 804 803 802 802 801 800 800 799 798 798 797 797 796 795 794 793 792 790 788 786 783 781 778 776 773 770 766 764 759 753 754 753 752 753 753 754 755 756 756 756 754 752 750 749 749 748 748 746 743 739 736 741 751 758 756 749 742 733 727 720 713 709 707 707 706 712 713 707 704 706 711 713 714 709 706 706 702 704 712 720 729 736
811 809 808 807 806 804 803 802 801 800 800 799 798 798 797 796 796 795 795 794 793 792 791 790 788 786 783 781 778 776 773 769 765 758 751 749 751 751 750 751 752 753 755 755 755 754 752 750 747 747 748 747 745 743 743 738 736 742 748 753 750 741 731 721 718 713 708 707 704 704 706 709 711 707 703 711 718 715 719 716 711 719 717 715 719 724 731 736
810 809 808 806 805 804 803 801 801 800 799 798 797 796 795 795 794 793 793 793 792 791 790 789 788 785 783 780 777 776 773 768 761 751 744 745 747 748 748 749 750 751 753 754 753 752 750 747 744 744 746 747 742 740 742 738 736 738 742 748 742 732 726 716 712 708 703 701 704 708 711 714 711 707 706 714 719 716 719 717 716 726 726 724 725 726 731 736
810 809 807 806 805 803 802 801 800 799 798 797 796 795 794 793 793 792 791 791 791 790 789 788 787 785 783 780 777 775 773 767 753 743 742 743 745 746 747 747 748 750 752 753 752 752 749 746 742 740 744 746 740 737 739 736 734 735 737 742 733 725 726 717 709 704 699 701 709 712 714 718 712 708 711 715 722 720 713 708 711 722 724 724 726 726 731 736
810 809 807 805 804 803 802 801 799 798 797 796 795 794 793 792 791 790 790 789 789 788 788 787 786 785 782 780 777 775 775 763 745 740 744 744 745 746 746 746 748 749 751 752 752 751 750 747 744 741 741 743 740 738 736 730 729 733 732 732 727 722 723 714 705 701 699 704 711 714 716 716 711 712 712 714 724 719 706 699 700 710 715 717 722 726 732 737
810 808 807 805 803 802 801 800 798 797 796 795 794 793 792 791 790 789 788 788 787 787 787 786 785 784 782 780 776 775 775 758 740 743 745 743 745 745 746 746 747 748 750 751 750 749 748 746 745 744 741 740 740 737 733 725 724 732 730 725 724 721 720 711 702 701 702 708 713 714 714 712 715 716 710 713 719 709 697 692 693 701 706 709 717 725 732 737
809 807 806 805 803 802 800 799 798 796 795 794 793 792 791 790 788 788 787 786 786 785 785 785 784 783 781 779 775 771 769 754 741 743 743 743 745 744 746 746 746 747 747 748 747 746 746 745 745 742 740 739 737 734 729 723 721 729 729 723 721 719 717 711 704 703 706 713 714 711 712 715 721 717 710 713 711 702 695 690 692 699 702 707 716 725 731 735
808 806 805 804 802 801 800 798 796 795 794 793 792 790 789 788 787 786 785 785 784 784 784 783 783 782 781 779 775 768 761 751 743 743 743 743 744 744 746 745 745 745 744 745 743 743 743 743 742 739 740 737 733 731 726 724 722 724 726 722 718 716 713 709 707 706 708 714 714 715 718 717 716 713 713 713 707 701 697 695 698 705 708 711 718 724 729 733
807 805 804 802 801 799 798 797 795 794 793 791 790 789 788 787 786 785 784 783 783 783 782 782 781 781 781 778 774 767 754 746 744 743 742 743 743 744 745 744 744 742 741 741 740 741 740 740 738 735 737 734 729 728 724 726 725 719 720 720 717 715 710 707 708 708 710 713 714 719 722 717 711 712 716 711 703 699 696 700 706 713 718 717 720 723 725 731
806 804 802 801 799 798 796 795 794 793 791 790 789 788 787 785 784 783 783 782 781 781 780 781 780 780 780 776 772 763 748 744 744 743 743 743 744 744 744 743 742 741 739 737 736 737 736 735 734 730 732 731 727 725 721 723 720 712 714 716 715 715 710 707 708 707 708 710 712 718 722 717 710 716 721 709 700 697 697 705 709 714 722 720 721 722 723 729
804 803 801 799 798 796 795 794 792 791 790 789 787 786 785 784 783 782 781 781 779 779 779 779 779 779 777 774 771 758 744 743 742 742 744 743 743 743 742 742 741 741 739 736 734 733 733 732 729 729 732 730 727 725 719 715 712 709 710 713 712 712 710 708 708 708 709 711 710 714 719 716 712 715 717 706 698 697 699 708 710 712 718 720 722 724 725 729
803 801 800 798 796 795 793 792 790 790 788 787 786 784 783 782 781 780 780 779 778 778 777 777 778 777 775 771 765 752 745 745 741 740 743 742 742 741 741 741 740 740 739 736 733 730 731 730 728 730 729 726 728 728 719 710 710 710 710 716 717 714 713 709 708 707 709 713 706 711 724 722 715 713 707 700 696 695 698 706 711 711 714 718 721 724 726 727
802 800 798 797 795 793 792 790 789 788 786 786 784 783 782 780 779 779 777 777 776 776 775 776 775 775 774 764 753 749 748 747 742 740 740 741 741 740 740 740 739 740 739 736 733 730 730 728 728 729 725 724 726 722 713 707 710 712 711 716 720 722 718 708 707 706 708 710 702 711 732 727 714 708 700 695 694 693 695 700 708 711 711 715 719 723 726 727
801 799 797 795 794 792 790 789 788 786 785 784 782 781 779 778 777 776 775 775 774 774 773 774 774 773 769 756 747 746 745 744 743 739 737 738 738 738 738 737 737 738 737 736 734 732 730 728 727 727 724 723 721 715 713 713 714 715 716 717 720 727 721 705 703 707 709 707 698 712 732 724 709 702 696 692 691 691 694 696 700 706 709 712 716 721 725 726
801 798 796 794 792 791 789 787 786 784 783 782 780 779 777 775 774 773 773 772 771 772 771 771 771 771 765 752 743 740 738 738 737 733 734 736 736 735 734 734 735 734 735 735 734 733 731 728 727 728 725 721 720 721 722 720 716 717 724 726 721 723 720 705 698 701 707 705 698 712 727 720 706 696 689 689 688 689 695 696 696 702 708 711 716 721 724 726
800 798 795 793 791 789 788 786 785 783 782 780 778 777 774 773 771 770 770 769 769 769 770 770 767 767 762 747 737 734 733 731 728 727 730 732 733 732 731 731 731 731 732 732 732 732 730 729 727 726 725 723 724 727 728 725 721 717 722 727 721 720 722 712 697 690 697 703 700 709 719 716 704 692 683 683 686 687 693 698 701 707 712 716 720 720 724 726
799 797 795 792 790 788 786 785 783 782 780 778 777 774 772 769 766 766 766 766 767 766 767 766 762 763 754 740 735 730 726 723 721 723 724 726 729 729 730 729 727 727 728 729 731 729 728 729 727 726 724 723 721 724 733 735 729 721 718 722 719 716 719 715 703 687 687 700 703 704 711 710 700 689 681 678 681 684 691 701 708 713 719 725 726 723 725 726
798 796 794 791 789 787 785 784 782 780 778 776 775 772 769 765 762 763 762 763 764 765 766 761 763 765 743 728 729 723 719 718 716 718 719 720 724 726 728 726 723 724 726 728 728 727 728 727 727 728 724 721 718 719 731 731 723 722 720 722 722 715 712 710 702 686 682 697 703 703 707 707 698 687 680 675 674 681 691 701 706 711 719 726 729 729 728 726
797 795 793 791 788 786 784 782 781 779 777 775 772 770 766 759 757 759 759 759 759 760 759 752 756 755 728 714 718 716 717 717 714 716 716 716 719 722 724 723 720 720 724 728 726 724 725 727 728 727 721 718 716 713 719 717 711 713 713 715 719 716 708 700 693 679 678 696 703 702 703 704 699 688 680 673 669 679 693 699 703 710 717 726 735 734 728 726
796 794 792 790 787 785 783 781 779 778 776 775 772 769 763 755 752 753 753 755 754 750 746 739 741 740 723 715 715 713 715 715 714 714 713 713 715 718 720 720 718 717 720 723 723 719 720 728 725 718 715 713 713 710 709 708 705 705 706 706 708 710 706 694 686 676 675 693 701 698 698 698 696 687 678 672 670 682 695 701 704 710 715 725 735 731 725 725
795 793 791 789 786 784 782 780 778 776 775 774 773 770 764 757 754 751 748 749 747 744 741 735 734 733 727 720 715 713 712 711 711 710 712 712 711 716 716 716 718 717 716 715 717 715 717 722 715 709 710 707 707 707 706 706 706 705 703 702 700 701 699 688 683 675 672 690 698 693 696 695 690 685 677 672 675 685 693 699 704 707 710 716 722 723 723 724
794 792 789 788 785 783 781 779 777 775 774 773 772 769 763 759 757 754 750 747 741 739 738 735 732 728 724 720 716 716 715 713 712 707 708 709 708 712 711 712 716 713 711 711 712 716 717 714 707 705 705 704 704 703 704 705 706 708 704 703 700 693 693 688 679 670 667 686 697 691 695 694 685 681 677 671 673 684 690 695 700 703 708 712 716 719 721 724
793 790 789 787 784 782 779 777 775 773 772 772 769 765 761 759 757 755 755 751 741 734 731 730 730 726 722 719 715 716 715 715 714 706 703 705 705 707 706 709 712 708 707 708 707 712 715 708 702 701 701 703 704 700 703 707 707 709 705 706 701 688 692 694 681 671 667 680 692 690 692 692 684 679 677 670 668 678 687 691 696 700 705 711 714 718 723 730
791 789 788 785 783 781 778 775 772 770 769 768 765 762 760 760 758 757 757 753 740 728 723 722 721 719 715 714 714 714 713 712 711 705 701 701 702 704 704 704 707 706 702 700 701 703 704 698 695 697 697 699 703 700 703 709 710 707 702 703 698 687 688 687 680 676 674 680 686 690 696 694 686 684 681 672 666 674 683 690 700 703 705 710 715 722 730 735
790 788 786 784 783 780 777 774 769 767 766 763 761 760 760 760 759 758 758 753 737 718 714 713 711 707 705 709 711 708 709 707 705 702 698 697 698 701 701 698 701 703 697 696 700 699 694 689 688 694 695 694 700 699 698 704 710 708 701 695 692 687 682 678 677 678 686 697 690 693 714 707 687 685 683 675 670 674 681 691 703 708 709 712 718 727 733 736
789 787 784 783 781 779 777 771 767 767 764 761 760 759 760 760 759 759 758 754 734 708 700 701 700 696 694 700 701 704 710 702 696 699 697 695 695 696 699 695 694 696 692 691 695 695 688 681 682 690 692 692 697 697 692 695 707 710 697 689 688 685 682 679 679 679 691 706 693 690 716 715 692 685 680 675 675 675 680 693 701 705 709 714 722 731 734 738
787 785 784 782 780 779 776 770 768 767 763 761 760 761 761 760 760 759 758 753 725 692 683 687 690 686 683 688 693 702 705 691 689 695 692 694 693 692 697 694 691 693 685 686 696 690 681 679 680 685 689 691 695 694 688 688 702 704 688 685 689 687 684 678 677 680 682 692 694 687 700 713 702 685 673 673 678 675 678 695 702 701 706 714 725 734 735 738
786 784 782 780 778 778 776 772 769 766 763 762 761 763 761 760 760 757 762 754 715 683 678 679 684 683 679 681 687 694 689 677 685 691 687 693 693 691 697 691 689 690 680 684 695 684 676 679 678 681 688 689 688 687 684 685 694 693 681 682 687 686 684 677 677 683 676 688 706 692 689 712 709 682 669 672 679 678 675 690 706 704 703 713 723 729 729 730
784 782 780 779 776 774 773 771 768 765 764 762 762 762 760 761 759 758 767 750 703 682 686 685 685 683 677 680 685 688 684 675 678 682 685 691 690 689 695 689 684 686 681 680 685 678 673 673 670 675 684 684 681 680 680 681 687 684 678 680 685 687 687 685 687 686 681 697 714 694 684 708 711 685 675 676 678 680 673 680 703 708 706 716 722 724 724 726
782 780 778 777 774 771 769 767 765 764 763 762 762 760 760 760 757 763 767 740 704 698 701 697 693 684 678 682 686 688 685 676 669 676 686 688 688 689 688 685 682 682 681 678 677 672 666 665 665 667 674 676 675 675 675 675 679 682 682 683 687 691 690 692 692 688 698 712 710 691 679 695 709 692 675 675 672 671 670 674 692 705 711 719 722 722 724 727
780 777 776 775 772 770 768 764 763 763 762 762 761 760 761 757 756 767 754 719 710 718 713 707 704 694 684 682 686 687 686 678 670 677 687 685 688 691 688 688 686 684 685 683 679 671 664 666 667 660 662 668 672 674 672 670 674 682 685 686 692 699 701 704 702 702 719 721 700 686 678 685 705 695 671 667 660 656 664 671 683 699 709 716 718 719 721 724
777 774 773 771 769 768 766 762 761 762 762 761 761 761 761 756 758 762 737 709 717 729 724 720 715 707 699 687 682 683 684 681 674 676 683 684 687 691 689 687 685 689 692 686 682 678 669 664 666 664 660 661 669 674 672 672 676 683 686 691 702 712 720 724 720 717 723 714 691 682 682 685 691 682 667 663 655 650 654 664 678 691 701 707 710 713 716 719
774 771 768 766 765 763 762 760 760 762 761 760 762 762 762 761 752 740 727 722 730 733 729 726 719 713 711 701 686 679 680 679 672 674 679 682 686 689 687 680 676 682 686 682 683 685 679 666 664 668 659 654 661 669 677 681 681 684 687 694 703 713 729 738 729 722 721 709 689 679 685 693 687 670 661 658 654 648 647 654 668 680 691 698 701 706 711 715
770 768 764 761 761 760 759 759 759 760 761 760 762 762 765 764 746 730 730 733 732 729 726 725 723 714 707 703 689 675 675 672 665 672 679 680 685 688 686 679 672 672 674 678 680 681 687 680 667 664 660 658 662 664 673 679 680 682 680 685 693 699 716 729 724 722 721 711 697 689 691 697 688 667 653 651 651 647 645 649 658 672 685 693 698 704 710 714
767 764 762 760 759 757 756 757 758 759 760 760 760 761 762 755 741 734 735 733 728 726 724 721 719 711 700 695 688 673 668 668 665 672 678 679 682 683 682 678 672 668 669 677 676 673 684 679 659 656 661 665 672 668 664 671 680 680 675 682 690 685 690 707 711 707 710 712 707 699 692 681 670 659 648 648 650 646 646 648 654 671 684 691 699 705 709 714
764 761 760 759 757 755 755 756 757 758 760 761 761 759 752 744 739 738 734 731 730 728 726 718 710 709 702 692 688 678 666 664 668 673 675 676 677 676 676 673 668 665 664 669 671 671 680 674 655 658 664 664 672 671 661 665 676 680 682 684 681 672 676 698 709 700 703 719 711 695 690 678 669 667 655 652 655 650 650 656 662 675 686 691 700 704 707 712
764 761 759 756 755 755 755 755 756 758 758 761 763 755 741 734 737 738 732 728 728 726 726 722 713 715 715 701 690 683 672 666 668 671 674 675 673 670 671 669 665 663 657 657 664 664 669 671 660 662 671 665 663 667 663 657 662 677 686 679 671 675 678 688 707 712 716 726 711 691 691 688 686 684 664 654 659 654 655 669 677 682 688 693 699 703 706 708
763 761 757 755 755 754 754 755 756 757 758 760 761 751 738 734 731 732 730 724 724 723 722 725 723 720 722 713 696 682 672 668 669 669 670 673 669 663 666 668 663 660 653 651 659 656 659 672 668 661 670 667 659 667 672 659 653 666 673 666 672 693 697 690 700 713 721 728 715 697 691 686 685 682 664 658 663 659 660 675 684 687 690 694 698 702 704 706
762 760 756 753 754 754 754 755 755 758 760 758 754 744 736 735 727 722 725 721 719 721 720 725 728 724 722 716 703 689 675 667 668 667 665 670 668 659 659 662 660 658 652 649 654 654 657 673 676 663 661 663 662 670 677 668 661 664 664 661 669 685 692 688 688 696 709 721 719 708 699 687 675 667 662 663 666 661 663 674 683 688 690 693 697 700 702 706
761 759 755 752 754 755 754 755 756 759 759 752 745 737 732 732 722 714 719 719 717 720 721 723 725 725 723 712 700 694 680 667 665 663 659 663 665 660 655 654 655 657 653 648 650 652 656 669 678 669 659 664 670 668 668 669 670 669 667 670 676 679 678 679 680 680 690 706 713 714 710 689 664 656 657 659 662 661 662 669 677 683 687 689 693 697 700 705
762 761 756 752 754 754 754 757 756 755 753 746 740 736 732 727 717 710 713 716 717 718 719 722 724 724 721 710 700 696 686 670 662 658 655 658 663 662 653 648 652 654 655 655 652 651 656 665 675 674 667 672 673 661 656 661 661 662 666 672 678 680 679 687 692 679 674 687 696 706 713 689 658 652 654 653 655 656 658 664 670 676 684 688 690 694 698 703
763 763 757 753 754 754 755 756 752 749 747 743 739 737 730 718 710 708 709 711 712 712 714 719 722 720 714 708 703 698 687 671 659 655 654 654 656 656 647 643 647 650 654 659 653 647 651 661 674 678 671 669 666 657 655 656 653 659 666 664 667 671 673 685 695 684 674 677 677 689 704 687 658 653 655 653 652 651 654 660 664 669 678 684 689 693 697 701
762 760 755 753 753 753 755 754 749 746 743 739 737 733 725 715 710 709 708 708 708 709 714 718 717 715 709 703 699 694 688 674 657 651 653 653 651 647 641 638 641 646 653 658 653 648 654 665 677 683 675 665 660 657 657 655 655 662 664 657 659 663 663 668 674 673 678 681 680 691 703 688 665 656 654 654 655 656 660 662 660 664 672 681 688 693 697 701
763 758 754 754 754 753 755 753 748 744 739 736 734 728 721 717 715 712 710 709 708 709 716 716 711 708 703 699 694 690 689 683 665 651 650 654 650 642 638 638 640 645 650 652 649 651 662 670 677 687 688 681 677 674 671 666 663 663 662 661 660 656 658 666 666 669 682 686 682 692 701 690 671 660 657 658 662 668 673 670 664 664 672 682 689 693 697 700
763 758 754 754 754 755 754 750 749 747 740 737 736 729 724 722 719 717 716 716 714 714 716 712 707 705 702 698 694 686 683 684 678 661 650 652 649 640 638 641 642 644 647 645 644 651 664 669 672 685 693 693 691 685 678 673 668 664 661 663 663 657 658 668 672 681 693 689 680 684 695 692 676 666 663 663 670 679 681 678 675 673 676 682 689 694 697 700
767 762 756 754 752 752 751 748 749 750 746 744 740 731 727 726 722 720 721 721 717 715 715 713 708 706 702 695 693 689 680 677 677 667 653 650 647 640 640 643 642 643 646 646 646 652 663 666 666 673 677 678 679 671 663 665 669 668 664 663 664 662 657 661 674 686 689 689 687 680 682 690 683 673 669 668 676 685 685 686 688 687 685 686 690 695 696 700
770 768 766 764 757 751 748 746 749 752 750 749 744 734 730 730 726 723 722 721 719 716 715 712 707 706 702 696 694 693 684 673 669 664 654 647 645 642 641 642 642 643 646 649 648 653 666 671 666 664 662 659 660 657 654 661 667 665 664 665 664 662 660 664 676 678 676 689 696 678 674 687 685 674 671 673 680 687 690 692 694 697 699 695 693 697 699 701
771 771 770 771 766 758 752 749 749 750 748 747 744 738 734 732 730 728 724 719 717 717 717 712 705 703 701 698 699 698 690 679 671 665 658 650 648 648 646 644 645 645 648 651 650 653 668 674 667 664 661 653 650 651 650 657 662 661 663 666 663 662 665 670 674 669 670 685 689 675 676 687 681 672 672 676 682 686 689 692 694 700 707 703 699 703 705 706
775 773 769 769 768 763 759 755 751 748 745 744 743 740 737 734 730 729 726 722 717 714 717 717 708 701 698 696 699 701 697 690 682 672 661 654 651 655 658 654 649 647 651 654 652 654 666 672 665 664 666 658 652 650 648 654 661 664 665 664 661 662 666 670 670 667 669 675 675 671 677 681 674 670 672 676 681 683 686 691 694 699 704 704 703 706 709 710
779 778 773 771 768 760 755 752 750 748 744 741 740 738 736 733 731 727 723 722 721 714 712 713 707 700 698 696 697 699 696 693 690 679 666 661 656 656 661 657 648 650 654 656 657 658 667 672 665 664 671 668 660 656 654 656 660 664 665 662 660 663 667 668 668 669 671 673 672 672 678 681 676 671 674 679 680 682 686 691 694 696 699 702 705 706 708 710
782 779 777 775 767 756 752 749 746 745 743 741 740 737 734 731 729 727 720 714 716 715 709 707 705 700 699 698 696 696 691 689 689 680 671 668 661 655 657 652 647 654 659 659 660 662 669 674 667 668 679 677 667 668 667 664 667 670 668 665 665 668 668 667 666 669 672 673 677 679 681 686 684 677 678 681 680 683 689 690 693 696 697 701 705 706 708 710
782 778 775 776 768 756 751 747 743 741 739 738 737 734 732 728 724 725 722 712 707 709 707 706 707 704 703 702 698 692 689 687 685 678 672 671 662 653 651 647 646 654 657 659 664 665 670 677 672 673 685 681 673 677 678 678 688 689 675 665 665 666 666 665 664 665 666 668 678 683 679 680 683 680 681 684 682 685 688 689 693 696 697 701 704 706 709 712